Retour au catalogue

STARLINK-3241

ActifCommunicationsVLEO
NORAD 49745·PAYLOAD·🇺🇸 United States

Lancé Dec 2, 2021 depuis Cape Canaveral Space Force Station

Loading…

Prochains Passages (prochaines 24 heures)

TLE

FraisSource: CelesTrak SupGP

Époque: Sep 15, 2026, 02:23 UTC

1 49745C 21115X   26258.09979167 -.00040985  00000+0 -13177-2 0  2586
2 49745  53.1614   5.1164 0000950  74.3725 305.8456 15.31730020    14

Suivez STARLINK-3241 en temps réel avec AllMySat

Download on the App Store